Aberdeen, SD

10:55 PM CDT on May 22, 2017 (GMT -0500)
Aberdeen Regional

Weather History for KABR - November, 2012

Change the Weather History Date:

Monday, November 19, 2012

  Actual Average Record
Temperature  
Mean Temperature 41 °F 27 °F  
Max Temperature 58 °F 37 °F 75 °F (1908)
Min Temperature 23 °F 17 °F -11 °F (1914)
Degree Days  
Heating Degree Days 24 38  
Month to date heating degree days 601 621  
Since 1 July heating degree days 1483 1512  
Cooling Degree Days 0 0  
Month to date cooling degree days 0 0  
Year to date cooling degree days 764 525  
Moisture  
Dew Point 29 °F    
Average Humidity 66    
Maximum Humidity 92    
Minimum Humidity 40    
Precipitation  
Precipitation 0.00 in 0.02 in 0.56 in (1977)
Month to date precipitation 0.37 0.50  
Year to date precipitation 13.88 20.97  
Snow  
Snow 0.00 in - - ()
Month to date snowfall 0.6  
Since 1 July snowfall 0.6  
Snow Depth 0.00 in    
Sea Level Pressure  
Sea Level Pressure 30.05 in    
Wind  
Wind Speed 5 mph (NNW)    
Max Wind Speed 14 mph    
Max Gust Speed 18 mph    
Visibility 7 miles    
Events Fog    
T = Trace of Precipitation, MM = Missing Value Source: NWS Daily Summary

Daily Weather History Graph

Daily Weather History Graph

Search for Another Location

Airport or City:

Trip Planner

Search our weather history database for the weather conditions in past years. The results will help you decide how hot, cold, wet, or windy it might be!

Date:

Astronomy

Nov. 19, 2012 Rise Set
Actual Time 7:38 AM CST 4:59 PM CST
Civil Twilight 7:06 AM CST 5:31 PM CST
Nautical Twilight 6:30 AM CST 6:07 PM CST
Astronomical Twilight 5:54 AM CST 6:43 PM CST
Moon 12:35 PM CST (11/19) 11:36 PM CST (11/19)
Length of Visible Light 10h 25m
Length of Day
9h 20m
Waxing Crescent, 41% of the Moon is Illuminated
Nov 19
Waxing Crescent
Nov 20
First Quarter
Nov 28
Full
Dec 6
Last Quarter
Dec 13
New

Hourly Weather History & Observations

Time (CST) Temp. Windchill Dew Point Humidity Pressure Visibility Wind Dir Wind Speed Gust Speed Precip Events Conditions
12:53 AM 42.1 °F 36.1 °F 34.0 °F 73% 29.89 in 10.0 mi South 10.4 mph - N/A   Clear
1:53 AM 34.0 °F 29.8 °F 30.9 °F 89% 29.91 in 10.0 mi WSW 4.6 mph - N/A   Clear
2:53 AM 39.0 °F 32.8 °F 34.0 °F 82% 29.91 in 10.0 mi South 9.2 mph - N/A   Clear
3:53 AM 32.0 °F - 30.0 °F 92% 29.93 in 7.0 mi Calm Calm - N/A   Clear
4:48 AM 30.2 °F - 28.4 °F 93% 29.93 in 2.0 mi Calm Calm - N/A   Clear
4:53 AM 28.0 °F - 27.0 °F 96% 29.96 in 2.5 mi Calm Calm - N/A   Clear
5:00 AM 30.2 °F - 28.4 °F 93% 29.93 in 3.0 mi Calm Calm - N/A   Clear
5:16 AM 26.6 °F - 24.8 °F 93% 29.93 in 1.8 mi Calm Calm - N/A   Clear
5:18 AM 26.6 °F - 24.8 °F 93% 29.93 in 0.8 mi Calm Calm - N/A   Mist
5:42 AM 26.6 °F - 24.8 °F 93% 29.95 in 0.2 mi Calm Calm - N/A Fog Light Freezing Fog
5:53 AM 28.0 °F - 27.0 °F 96% 29.99 in 0.5 mi Calm Calm - N/A Fog Light Freezing Fog
6:03 AM 26.6 °F 21.2 °F 26.6 °F 100% 29.95 in 0.2 mi NNW 4.6 mph - N/A Fog Light Freezing Fog
6:11 AM 26.6 °F 21.2 °F 24.8 °F 93% 29.95 in 1.2 mi North 4.6 mph - N/A   Clear
6:13 AM 26.6 °F 20.0 °F 24.8 °F 93% 29.96 in 4.0 mi North 5.8 mph - N/A   Clear
6:53 AM 30.0 °F 23.2 °F 28.0 °F 92% 30.00 in 7.0 mi North 6.9 mph - N/A   Clear
7:53 AM 30.9 °F 26.2 °F 28.9 °F 92% 30.04 in 7.0 mi NNW 4.6 mph - N/A   Clear
8:53 AM 35.1 °F 30.1 °F 30.9 °F 85% 30.06 in 9.0 mi NW 5.8 mph - N/A   Clear
9:53 AM 41.0 °F 34.7 °F 33.1 °F 73% 30.07 in 10.0 mi North 10.4 mph - N/A   Clear
10:53 AM 45.0 °F 39.3 °F 33.1 °F 63% 30.10 in 10.0 mi NNW 11.5 mph - N/A   Clear
11:53 AM 48.9 °F - 35.1 °F 59% 30.09 in 10.0 mi North 6.9 mph - N/A   Clear
12:53 PM 54.0 °F - 33.1 °F 45% 30.08 in 10.0 mi North 9.2 mph - N/A   Clear
1:53 PM 55.0 °F - 34.0 °F 45% 30.09 in 10.0 mi North 10.4 mph - N/A   Partly Cloudy
2:53 PM 57.0 °F - 33.1 °F 40% 30.09 in 10.0 mi North 10.4 mph - N/A   Scattered Clouds
3:53 PM 53.1 °F - 30.9 °F 43% 30.12 in 10.0 mi North 9.2 mph - N/A   Clear
4:53 PM 46.0 °F 42.5 °F 30.9 °F 56% 30.15 in 10.0 mi North 6.9 mph - N/A   Partly Cloudy
5:53 PM 39.9 °F - 28.9 °F 65% 30.17 in 10.0 mi Calm Calm - N/A   Clear
6:53 PM 35.1 °F - 28.0 °F 76% 30.18 in 10.0 mi Calm Calm - N/A   Clear
7:53 PM 30.9 °F - 26.1 °F 82% 30.19 in 10.0 mi Calm Calm - N/A   Clear
8:53 PM 25.0 °F - 21.9 °F 88% 30.22 in 10.0 mi Calm Calm - N/A   Clear
9:53 PM 28.9 °F 23.9 °F 25.0 °F 85% 30.21 in 10.0 mi WNW 4.6 mph - N/A   Clear
10:53 PM 26.1 °F - 23.0 °F 88% 30.19 in 10.0 mi Calm Calm - N/A   Clear
11:53 PM 23.0 °F 17.0 °F 21.0 °F 92% 30.20 in 10.0 mi NW 4.6 mph - N/A   Clear